Temperature
16 16 16 16 15 15 15 15 15 15 15 15 15 14 14 14 14 14 14 13 13 13 13 13 13 13 13 13 13 13 13 12 12 12 12 12 12 12 12 12 12 12 11
16 16 16 15 15 15 15 14 14 14 14 14 14 14 14 14 14 14 13 13 13 13 13 12 12 12 12 12 12 12 12 12 12 12 12 12 12 12 12 12 12 11 11
15 15 15 15 15 14 14 14 14 14 14 13 13 13 13 13 13 13 13 13 13 13 12 12 12 12 11 11 12 12 12 12 12 12 12 12 12 12 11 11 11 11 11
15 15 15 15 15 14 14 14 13 13 13 13 13 13 12 12 13 13 13 13 12 12 12 12 12 11 11 10 10 11 11 11 11 11 11 11 11 11 11 11 11 10 10
15 15 15 15 14 14 14 13 13 13 13 13 12 12 12 12 12 12 12 12 12 12 12 11 11 11 11 10 9 10 10 11 11 11 11 11 11 11 10 10 10 10 9
15 15 14 14 14 13 13 13 13 13 13 13 12 12 12 12 11 12 12 12 11 11 11 11 11 11 10 10 9 9 9 9 10 10 10 10 10 10 10 9 9 9 9
15 14 14 14 14 14 13 13 13 13 13 13 12 12 12 11 11 11 11 11 11 11 11 11 11 10 10 10 9 9 8 8 8 9 9 9 9 9 9 8 8 8 8
14 14 14 14 14 13 13 13 13 13 13 12 12 12 11 11 12 12 11 11 11 11 11 10 10 10 10 9 9 8 8 7 7 7 7 7 7 7 7 7 7 7 7
14 14 14 13 13 13 13 13 13 12 12 12 12 11 11 11 12 12 12 11 11 11 11 10 10 9 9 8 8 8 7 7 6 6 6 6 6 6 6 6 6 6 6
14 13 13 13 13 13 13 13 12 12 12 12 12 11 11 11 11 11 11 11 11 11 10 10 9 9 8 8 7 7 7 6 6 5 5 4 4 4 4 4 4 5 5
13 13 13 13 13 12 12 12 12 12 12 11 11 11 11 10 10 10 10 10 11 11 10 10 9 8 8 7 7 6 6 5 5 5 4 4 4 3 3 3 4 4 4
13 13 13 12 12 12 12 12 12 11 11 11 11 10 10 10 9 9 9 9 9 10 9 9 9 8 7 6 6 5 5 4 4 4 3 3 3 3 3 3 3 3 3
12 12 12 12 12 12 12 11 11 11 11 10 10 10 10 9 9 9 9 8 8 8 8 8 7 7 6 6 5 4 4 3 3 3 3 2 2 2 3 3 3 3 3
11 11 11 11 11 11 11 11 10 10 10 10 10 9 9 9 8 8 8 7 7 7 6 6 6 6 6 5 4 3 3 3 2 2 2 2 2 2 2 2 2 2 2
9 10 10 10 10 10 10 10 10 10 10 9 9 9 8 8 8 8 7 7 6 6 6 6 5 5 5 4 3 3 2 2 2 2 2 1 1 1 1 1 1 1 1
8 8 8 9 9 9 9 9 9 9 9 8 8 8 8 7 7 7 7 6 6 6 5 5 5 4 4 3 2 2 2 2 1 1 1 1 1 0 0 0 -0 -1 -1
7 7 8 8 8 8 8 8 8 8 8 8 7 7 7 7 6 6 6 6 5 5 4 4 4 3 3 2 2 2 1 1 1 1 0 0 -0 -1 -1 -1 -1 -2 -2
7 7 7 7 7 7 7 7 7 7 7 7 7 6 6 6 5 5 5 5 4 4 3 3 3 3 2 2 1 1 1 1 0 0 -0 -0 -1 -2 -2 -2 -3 -3 -3
6 6 6 6 6 6 6 6 6 6 6 6 6 6 5 5 5 4 4 4 3 3 3 2 2 2 2 1 1 1 0 -0 -0 -1 -1 -2 -2 -3 -3 -3 -4 -4 -4
5 5 6 6 6 6 6 6 6 6 5 5 5 4 4 4 3 3 3 3 2 2 2 2 1 1 1 1 0 0 -0 -1 -1 -2 -2 -3 -3 -3 -3 -3 -3 -3 -3
5 5 5 5 5 5 5 5 5 4 4 3 3 3 2 2 2 2 1 1 1 1 1 1 1 0 0 -0 -0 -1 -1 -2 -3 -3 -3 -3 -4 -3 -3 -4 -3 -3 -3
4 4 4 4 4 4 3 3 3 3 2 2 2 1 1 1 0 0 -0 -0 0 -0 -0 -0 -0 -1 -1 -2 -2 -3 -3 -4 -4 -4 -4 -4 -4 -4 -4 -4 -3 -3 -3
3 2 2 2 2 2 2 2 1 1 1 1 0 0 0 -0 -0 -1 -1 -1 -1 -1 -1 -2 -2 -3 -3 -4 -4 -5 -5 -5 -5 -5 -5 -3 -3 -4 -3 -3 -3 -3 -3
2 2 2 1 1 1 1 1 1 0 0 -0 -0 -1 -1 -1 -1 -1 -1 -2 -2 -2 -3 -3 -4 -4 -4 -5 -5 -5 -6 -6 -5 -5 -6 -4 -3 -3 -3 -3 -3 -3 -3
1 1 1 1 1 1 0 0 -0 -0 -1 -1 -1 -1 -2 -2 -2 -2 -2 -3 -3 -3 -4 -4 -5 -5 -6 -6 -6 -6 -6 -6 -5 -5 -5 -5 -4 -4 -3 -2 -3 -3 -3
1 1 0 0 -0 -0 -1 -1 -1 -1 -2 -2 -2 -3 -3 -4 -4 -4 -4 -4 -5 -5 -5 -6 -6 -6 -6 -6 -6 -6 -6 -7 -7 -7 -6 -6 -6 -6 -5 -3 -3 -3 -3
Wind_Speed
8 10 11 12 13 13 12 10 10 9 9 10 10 8 7 9 12 13 13 14 14 13 12 11 11 11 11 10 10 11 11 11 10 10 10 10 10 10 10 10 10 10 11
12 10 10 11 13 14 14 13 12 9 8 9 8 10 9 10 14 15 15 15 16 15 14 13 12 12 12 12 11 11 11 11 10 10 10 9 9 9 9 9 9 9 9
15 12 9 9 13 16 15 12 11 9 6 6 6 8 9 10 14 15 16 16 16 16 16 15 14 14 14 13 13 12 11 11 11 10 9 9 8 7 7 7 7 7 7
18 14 9 8 14 15 12 7 6 6 6 6 6 5 6 8 12 15 16 16 16 16 17 17 16 16 15 14 14 13 12 11 11 10 9 8 7 6 6 5 5 4 4
17 14 9 10 13 10 8 7 7 6 6 6 7 6 5 5 7 12 12 15 17 18 18 18 18 17 16 16 15 14 13 12 11 10 9 8 7 6 4 4 3 2 2
14 13 9 9 10 6 7 7 7 7 5 6 6 5 4 4 4 6 10 13 16 18 19 18 18 18 17 17 16 15 14 13 12 11 10 8 7 6 4 3 2 1 1
13 11 6 6 6 8 9 9 7 7 6 4 3 3 3 4 6 6 7 8 11 16 18 19 19 18 17 18 18 16 15 14 13 12 10 9 7 6 5 4 3 3 3
13 11 8 8 7 7 8 9 8 5 5 5 5 3 3 4 6 6 6 8 9 12 14 18 18 19 19 18 17 17 16 15 14 13 11 10 8 7 6 5 5 5 5
12 12 10 8 8 8 9 10 10 9 8 6 5 5 5 8 5 4 6 8 8 8 9 14 17 19 20 19 18 17 15 14 13 12 11 10 9 8 7 7 7 7 7
8 10 11 9 9 8 9 10 10 9 8 7 5 5 5 4 5 4 3 5 7 9 10 10 15 18 20 19 19 17 15 13 13 12 11 10 9 9 9 9 9 9 9
6 7 8 7 8 8 9 9 9 9 8 8 7 5 6 3 3 4 6 4 4 6 9 9 11 15 19 19 18 18 17 15 13 12 11 10 9 9 10 9 10 10 10
4 5 5 5 6 7 8 9 8 9 9 9 8 6 6 5 6 7 10 7 5 3 4 5 6 10 14 17 18 19 18 15 13 11 10 10 10 10 10 10 11 12 13
4 6 5 4 5 5 6 6 6 7 8 8 9 9 9 9 5 5 7 6 4 1 1 1 1 5 10 13 16 19 17 14 11 10 10 11 10 9 9 11 13 15 15
4 5 5 4 4 4 3 3 4 5 4 6 8 8 7 8 6 5 4 4 3 2 2 2 1 1 6 11 14 17 15 14 11 10 10 11 10 9 10 12 14 16 16
4 5 5 5 5 4 3 2 2 2 2 3 4 4 4 3 3 4 3 5 5 5 6 5 3 1 5 10 15 14 13 14 13 12 12 12 12 12 13 15 16 17 17
5 6 6 6 6 6 5 4 3 3 2 2 2 1 0 0 0 0 2 3 4 6 5 3 2 2 5 8 13 11 11 12 12 12 12 13 14 15 15 16 17 17 17
6 7 6 7 7 7 7 6 6 6 5 5 5 4 4 3 2 2 1 1 2 2 4 1 1 2 3 5 7 8 8 8 8 11 12 13 14 15 15 16 16 16 17
7 8 8 8 9 9 8 8 8 7 7 7 6 6 5 4 3 2 1 1 0 0 2 3 2 2 2 4 4 4 5 6 6 9 12 13 14 14 14 14 15 15 16
8 9 9 9 9 9 9 8 8 8 8 7 6 6 5 4 4 3 3 2 2 2 2 2 2 2 1 2 2 2 2 2 5 7 9 11 11 12 13 14 14 15 15
8 9 9 9 8 9 9 8 9 9 9 8 8 7 6 4 4 3 3 3 3 4 3 3 2 2 2 2 2 2 1 1 2 3 7 8 10 12 13 14 15 15 16
9 8 8 9 8 8 8 8 8 9 8 8 8 7 7 6 5 3 3 3 4 4 3 3 2 2 1 1 1 1 1 0 2 1 2 3 5 8 12 15 16 16 16
8 9 9 9 10 9 12 13 10 8 8 8 7 7 8 9 9 8 8 7 5 4 3 2 2 1 1 1 1 1 1 1 2 1 1 4 5 6 10 13 15 16 16
8 9 9 9 9 11 14 13 13 8 7 7 7 6 6 7 9 7 8 9 8 7 4 2 1 1 1 1 2 1 2 3 4 3 2 4 3 5 9 13 15 15 15
7 7 8 8 7 9 12 12 11 7 7 6 6 6 5 5 5 6 5 5 5 5 4 3 2 2 2 3 4 4 4 3 3 4 3 4 3 4 5 11 15 15 13
6 6 5 6 6 6 9 9 8 5 5 5 5 4 4 4 7 8 6 5 5 5 6 6 3 2 4 5 5 2 1 1 3 3 2 2 3 4 4 5 8 8 7
4 4 4 4 4 4 6 8 7 3 4 3 4 5 6 5 7 6 4 3 3 3 3 5 6 6 6 7 6 1 3 3 2 3 2 2 2 3 5 3 3 8 11
Wind_Direction
199 201 206 206 206 204 205 211 218 225 231 239 241 236 216 197 193 189 189 184 180 180 183 182 179 174 170 164 158 151 146 140 135 128 121 115 109 103 97 90 84 79 75
203 200 204 207 211 210 211 213 217 222 227 226 228 226 216 200 198 195 195 192 188 186 189 191 190 186 181 176 171 164 159 153 147 140 133 126 118 111 103 95 88 80 75
209 203 203 208 213 214 214 216 221 224 229 225 226 223 212 201 199 200 200 197 195 193 194 197 197 195 192 187 181 176 171 166 160 154 148 141 133 124 116 105 95 85 77
215 210 211 214 213 211 211 211 212 216 224 222 223 223 213 204 203 205 204 202 199 198 199 202 201 200 200 197 191 186 182 178 173 168 163 157 151 144 134 122 109 95 80
216 214 220 221 213 210 211 213 212 206 214 220 223 224 220 210 205 207 208 207 205 202 201 205 204 203 203 204 201 196 191 188 185 181 178 174 171 167 160 149 135 112 78
219 217 223 225 215 213 217 213 211 208 210 210 218 229 234 233 218 211 210 211 211 208 205 204 202 203 204 207 208 205 200 197 195 193 191 189 188 188 189 191 195 220 296
223 217 223 225 216 221 224 218 213 212 217 177 176 254 280 252 236 227 215 212 213 212 209 205 199 197 201 208 210 211 208 205 203 202 202 202 203 207 213 223 237 255 275
231 225 221 224 220 224 228 224 215 215 212 179 176 186 265 288 256 226 210 215 215 210 210 207 202 198 198 202 208 212 214 214 211 210 210 211 215 220 231 242 254 266 276
241 234 231 227 225 221 228 226 218 216 221 206 193 175 194 231 254 266 228 220 211 210 211 207 205 203 200 200 201 207 212 218 218 218 218 219 225 233 244 255 264 272 279
263 252 244 238 234 229 229 230 223 221 218 215 217 228 217 187 199 257 265 233 218 216 213 210 208 206 203 199 199 201 203 208 217 224 226 227 234 244 256 266 273 279 284
286 273 259 249 245 239 235 233 227 221 218 218 205 205 225 234 222 227 262 260 244 230 218 212 208 206 203 197 194 194 196 202 215 225 233 238 246 256 266 275 283 288 290
310 308 287 264 255 251 245 240 234 227 224 223 216 202 196 199 208 214 238 242 241 245 230 217 208 201 195 192 189 189 192 200 211 223 236 246 256 269 281 290 294 294 292
322 320 316 292 273 263 259 253 244 239 229 223 223 222 222 227 213 212 230 239 235 258 321 292 248 186 184 180 181 181 187 196 207 222 238 252 265 282 292 294 294 293 293
305 312 322 318 307 302 289 276 263 254 241 233 233 229 228 232 224 215 216 211 228 245 245 240 15 122 157 163 172 173 181 190 203 219 238 255 270 283 287 287 287 288 289
333 341 345 351 351 349 342 331 306 288 269 255 254 245 238 239 226 222 213 201 208 230 234 204 184 136 148 154 167 166 171 190 209 225 238 251 265 273 274 276 278 280 283
359 5 10 14 16 16 14 19 10 4 14 5 355 342 316 26 111 166 213 220 218 226 235 182 166 152 163 164 171 163 175 197 217 231 241 252 260 266 270 272 275 278 280
17 24 26 32 32 28 26 36 37 35 45 40 34 41 42 44 55 55 54 213 223 212 227 143 108 126 161 163 160 153 166 190 219 240 252 259 264 268 271 273 276 279 280
31 35 39 42 40 37 36 42 45 45 51 51 46 54 50 50 49 44 55 77 115 103 179 174 147 141 154 162 147 153 174 200 219 243 255 261 266 271 275 277 278 279 281
42 42 45 46 44 42 43 45 51 53 54 52 49 54 50 52 48 40 40 44 50 54 66 128 130 118 115 135 134 151 179 208 235 248 258 266 271 277 279 282 284 285 286
49 48 49 49 49 48 47 48 54 56 56 52 48 48 46 49 60 58 52 52 57 62 64 85 91 94 102 106 118 145 185 204 246 261 268 273 279 284 287 287 287 287 287
56 53 53 49 47 51 51 53 55 60 60 58 50 43 42 52 68 81 79 68 66 66 65 66 69 79 89 103 133 143 187 59 287 268 286 285 289 287 285 284 284 282 279
57 56 55 54 52 54 58 63 67 61 60 57 51 41 37 37 45 62 81 81 77 76 72 67 59 71 68 75 99 125 135 102 294 281 260 270 262 266 269 270 274 275 275
60 59 55 54 55 56 60 65 70 67 62 56 49 43 42 39 43 40 50 50 45 50 63 104 117 125 159 167 144 149 192 203 231 251 271 278 253 262 268 272 279 280 278
66 65 58 51 51 56 61 65 69 58 57 49 43 40 38 18 27 44 44 39 29 22 33 79 139 176 189 192 188 193 207 232 260 254 212 263 285 273 280 282 286 282 276
74 66 60 52 45 41 59 64 66 48 47 32 21 24 37 12 24 40 45 35 26 11 30 40 30 322 293 285 253 187 205 292 303 288 218 236 294 301 289 284 292 292 282
91 81 63 43 35 18 51 63 66 49 40 17 8 6 12 17 15 27 57 38 8 335 349 355 352 347 343 333 324 248 185 191 232 285 280 247 285 326 312 287 269 276 278
Height
1562 1563 1564 1565 1565 1566 1567 1567 1567 1567 1567 1567 1567 1567 1566 1565 1564 1564 1564 1563 1563 1562 1561 1560 1559 1558 1557 1557 1556 1556 1555 1555 1555 1555 1555 1555 1554 1554 1554 1553 1553 1553 1552
1560 1561 1561 1562 1562 1563 1564 1564 1564 1564 1564 1564 1564 1564 1563 1563 1562 1562 1561 1561 1561 1560 1559 1558 1557 1556 1555 1555 1555 1555 1554 1554 1554 1554 1554 1554 1553 1553 1553 1552 1552 1552 1551
1558 1558 1558 1558 1559 1560 1561 1561 1561 1561 1561 1560 1560 1560 1560 1560 1559 1559 1558 1558 1558 1557 1557 1556 1555 1554 1554 1553 1553 1553 1553 1553 1553 1553 1553 1552 1552 1552 1552 1551 1551 1551 1550
1555 1556 1556 1556 1556 1557 1557 1557 1557 1557 1557 1557 1556 1556 1556 1556 1556 1556 1555 1554 1554 1554 1554 1553 1553 1552 1552 1552 1552 1551 1552 1552 1551 1551 1551 1551 1551 1551 1550 1550 1550 1550 1549
1552 1552 1552 1553 1553 1553 1553 1553 1553 1553 1553 1553 1553 1553 1552 1552 1552 1552 1551 1551 1551 1551 1551 1551 1550 1550 1550 1550 1550 1550 1549 1550 1550 1549 1549 1549 1549 1549 1549 1548 1548 1548 1548
1548 1548 1549 1549 1549 1549 1549 1549 1549 1549 1549 1549 1549 1548 1548 1547 1547 1547 1547 1547 1546 1546 1546 1547 1547 1547 1547 1547 1547 1547 1547 1547 1547 1547 1547 1547 1547 1547 1547 1547 1546 1546 1546
1544 1544 1544 1544 1544 1544 1544 1544 1544 1544 1544 1544 1544 1543 1542 1542 1541 1541 1541 1541 1541 1541 1541 1541 1542 1543 1543 1543 1543 1544 1544 1544 1544 1544 1544 1544 1544 1544 1544 1544 1544 1544 1544
1539 1539 1539 1539 1539 1538 1538 1539 1539 1538 1538 1539 1538 1537 1536 1536 1534 1534 1534 1534 1534 1535 1535 1535 1536 1537 1538 1539 1539 1540 1541 1541 1541 1541 1541 1541 1541 1541 1541 1541 1541 1541 1541
1533 1533 1533 1533 1532 1532 1532 1532 1532 1532 1531 1532 1532 1532 1530 1527 1528 1527 1527 1527 1527 1527 1528 1528 1529 1530 1532 1533 1534 1535 1536 1537 1538 1538 1538 1538 1538 1538 1538 1538 1538 1538 1538
1526 1526 1526 1526 1526 1526 1525 1526 1526 1525 1525 1524 1524 1524 1524 1523 1523 1520 1520 1520 1520 1520 1520 1521 1522 1523 1525 1526 1528 1529 1531 1532 1533 1534 1534 1535 1535 1534 1535 1535 1535 1534 1534
1520 1519 1519 1519 1519 1519 1519 1519 1519 1519 1518 1518 1517 1517 1517 1516 1515 1515 1513 1513 1513 1513 1513 1514 1514 1515 1516 1518 1520 1522 1524 1526 1527 1528 1530 1530 1530 1531 1531 1531 1530 1530 1529
1514 1513 1513 1513 1512 1512 1512 1512 1512 1512 1512 1511 1511 1510 1510 1509 1508 1508 1507 1505 1505 1506 1506 1506 1506 1506 1508 1510 1512 1514 1516 1518 1520 1522 1523 1524 1525 1525 1525 1525 1524 1524 1523
1507 1507 1507 1506 1506 1506 1506 1506 1506 1506 1505 1505 1505 1504 1503 1503 1503 1502 1500 1499 1498 1497 1497 1497 1497 1498 1499 1501 1503 1505 1507 1509 1511 1513 1515 1517 1518 1518 1518 1517 1517 1517 1517
1502 1502 1501 1501 1500 1500 1500 1500 1499 1499 1499 1499 1498 1498 1497 1496 1496 1495 1494 1494 1491 1490 1490 1490 1490 1490 1491 1493 1495 1497 1499 1501 1503 1506 1507 1509 1510 1511 1511 1510 1509 1509 1509
1497 1497 1496 1496 1495 1495 1494 1494 1494 1494 1493 1493 1492 1491 1491 1490 1489 1489 1488 1488 1488 1485 1483 1484 1484 1483 1484 1486 1488 1490 1492 1495 1497 1499 1500 1501 1502 1503 1503 1503 1502 1502 1501
1493 1493 1492 1491 1491 1490 1490 1489 1489 1488 1488 1487 1487 1486 1485 1484 1483 1483 1482 1481 1480 1480 1478 1477 1477 1478 1479 1480 1482 1484 1487 1490 1492 1493 1494 1495 1496 1496 1496 1496 1495 1495 1494
1490 1489 1488 1488 1487 1486 1485 1485 1484 1483 1483 1482 1482 1481 1480 1479 1478 1477 1476 1476 1475 1475 1474 1473 1473 1473 1475 1476 1477 1480 1483 1484 1486 1488 1488 1489 1490 1490 1490 1489 1488 1488 1487
1487 1486 1485 1485 1484 1483 1482 1481 1481 1480 1479 1478 1477 1477 1475 1474 1473 1472 1471 1471 1470 1470 1470 1469 1469 1470 1471 1473 1475 1476 1478 1480 1481 1482 1482 1482 1483 1483 1483 1482 1481 1481 1480
1485 1484 1483 1482 1482 1481 1479 1479 1478 1477 1476 1475 1474 1473 1472 1471 1470 1469 1468 1467 1466 1466 1466 1466 1466 1467 1469 1470 1471 1473 1474 1475 1476 1476 1476 1476 1477 1476 1476 1475 1475 1474 1473
1483 1483 1482 1481 1480 1479 1478 1477 1476 1474 1473 1472 1471 1470 1469 1468 1467 1466 1466 1465 1464 1464 1464 1465 1465 1465 1466 1467 1468 1469 1470 1471 1471 1470 1471 1471 1470 1470 1469 1468 1468 1467 1466
1483 1482 1481 1480 1479 1477 1476 1475 1474 1473 1472 1471 1469 1469 1468 1467 1466 1465 1465 1464 1464 1464 1464 1464 1464 1464 1464 1464 1465 1465 1466 1466 1466 1466 1466 1465 1464 1464 1464 1462 1461 1461 1461
1482 1481 1480 1479 1478 1477 1476 1475 1474 1473 1471 1470 1469 1469 1468 1467 1466 1465 1464 1464 1464 1463 1463 1462 1462 1462 1462 1462 1462 1462 1462 1462 1462 1462 1461 1460 1460 1459 1458 1457 1456 1456 1455
1482 1481 1480 1479 1478 1477 1476 1475 1474 1473 1472 1471 1470 1469 1468 1467 1466 1465 1464 1463 1462 1462 1461 1461 1460 1460 1459 1459 1459 1459 1459 1458 1458 1458 1456 1454 1455 1454 1453 1452 1451 1451 1450
1483 1482 1481 1480 1479 1478 1477 1476 1475 1474 1472 1471 1470 1469 1468 1466 1465 1464 1463 1461 1460 1460 1459 1458 1458 1457 1457 1456 1456 1456 1455 1454 1454 1453 1452 1449 1449 1449 1448 1447 1446 1446 1445
1483 1483 1482 1481 1480 1479 1478 1476 1475 1473 1472 1470 1469 1467 1466 1465 1463 1461 1460 1459 1458 1457 1457 1456 1455 1455 1454 1454 1453 1453 1452 1451 1450 1449 1448 1446 1445 1443 1442 1442 1441 1441 1440
1484 1483 1483 1482 1480 1479 1477 1476 1474 1473 1471 1469 1468 1466 1464 1463 1461 1459 1458 1457 1456 1455 1454 1453 1453 1452 1451 1451 1451 1450 1449 1449 1447 1446 1444 1444 1441 1439 1436 1435 1435 1435 1434